This demonstration page uses our WeatherBlox Daily Observations layout. Learn more.

Left ArrowRight Arrow

Hourly Observations for May 12, 2015

Temp ( °F °C ) Dew Point ( °F °C ) Humidity (%) Winds ( mph kmh ) Pressure ( in mb ) Visibility ( mi km ) Precip ( " mm )
12:11 am 00:11 Cloudy with Nearby Thunderstorms 65 18.3 43 6.1 45 45 E 15 24 30.09 1019 10 16 0.00 0.00
12:23 am 00:23 Cloudy with Thunderstorms 65 18.3 43 6.1 45 45 E 12 19 30.09 1019 10 16 0.00 0.00
12:38 am 00:38 Cloudy with Light Rain 63 17 46 8 56 56 E 14 22 30.12 1020 10 16 0.00 0.00
12:53 am 00:53 Cloudy with Nearby Thunderstorms 59 15 49 9.4 69 69 E 16 26 30.07 1018 10 16 0.00 0.03
1:53 am 01:53 Cloudy with Nearby Thunderstorms 57 13.9 51 10.6 81 81 NE 10 17 30.06 1018 10 16 0.00 0.03
2:27 am 02:27 Cloudy 57 13.9 49 9.4 74 74 ENE 14 22 30.12 1020 10 16 0.00 0.00
2:53 am 02:53 Cloudy 57 13.9 50 10 78 78 NE 15 24 30.06 1018 10 16 0.00 0.00
3:18 am 03:18 Cloudy 57 14 50 10 77 77 NE 10 17 30.12 1020 10 16 0.00 0.00
3:53 am 03:53 Cloudy 57 13.9 50 10 78 78 NE 10 17 30.06 1018 10 16 0.00 0.00
4:53 am 04:53 Cloudy with Light Rain 57 13.9 51 10.6 81 81 E 6 9 30.07 1018 9 14 0.02 0.51
5:53 am 05:53 Cloudy 57 13.9 51 10.6 81 81 NE 6 9 30.08 1019 10 16 0.00 0.03
6:53 am 06:53 Cloudy 56 13.3 51 10.6 84 84 ENE 13 20 30.10 1019 10 16 0.00 0.00
7:53 am 07:53 Cloudy 56 13.3 51 10.6 84 84 E 10 17 30.13 1020 10 16 0.00 0.00
8:53 am 08:53 Cloudy 56 13.3 50 10 81 81 E 15 24 30.14 1021 10 16 0.00 0.03
9:53 am 09:53 Cloudy 57 13.9 51 10.6 81 81 E 12 19 30.17 1022 10 16 0.00 0.00
10:53 am 10:53 Cloudy with Light Rain 58 14.4 52 11.1 81 81 E 13 20 30.16 1022 10 16 0.00 0.03
11:53 am 11:53 Cloudy 61 16.1 53 11.7 75 75 E 13 20 30.16 1021 10 16 0.00 0.03
12:40 pm 12:40 Cloudy 64 18 54 12 68 68 E 12 19 30.15 1021 10 16 0.00 0.00
12:53 pm 12:53 Cloudy 66 18.9 54 12.2 65 65 E 12 19 30.14 1021 10 16 0.00 0.00
1:24 pm 13:24 Cloudy 68 20 54 12 60 60 ESE 10 17 30.09 1019 10 16 0.00 0.00
1:40 pm 13:40 Cloudy 70 21 54 12 57 57 E 12 19 30.06 1018 10 16 0.00 0.00
1:51 pm 13:51 Cloudy 72 22 54 12 53 53 ESE 12 19 30.06 1018 10 16 0.00 0.00
1:53 pm 13:53 Cloudy 71 21.7 54 12.2 55 55 E 12 19 30.10 1019 10 16 0.00 0.00
2:53 pm 14:53 Cloudy 73 22.8 54 12.2 51 51 ENE 13 20 30.07 1018 10 16 0.00 0.00
3:53 pm 15:53 Cloudy 76 24.4 53 11.7 45 45 E 14 22 30.01 1016 10 16 0.00 0.00
4:53 pm 16:53 Mostly Cloudy 75 23.9 53 11.7 46 46 ESE 18 30 29.97 1015 10 16 0.00 0.00
5:53 pm 17:53 Cloudy 73 22.8 53 11.7 50 50 ESE 16 26 29.98 1015 10 16 0.00 0.00
6:53 pm 18:53 Cloudy 71 21.7 53 11.7 53 53 ESE 14 22 29.97 1015 10 16 0.00 0.00
7:53 pm 19:53 Mostly Cloudy 71 21.7 54 12.2 55 55 ESE 13 20 29.94 1014 10 16 0.00 0.00
8:53 pm 20:53 Clear 70 21.1 54 12.2 57 57 ESE 12 19 29.99 1016 10 16 0.00 0.00
9:53 pm 21:53 Cloudy 69 20.6 54 12.2 59 59 SE 14 22 30.01 1016 10 16 0.00 0.00
10:53 pm 22:53 Mostly Clear 66 18.9 55 12.8 68 68 ESE 17 28 30.01 1016 10 16 0.00 0.03
11:47 pm 23:47 Cloudy with Nearby Thunderstorms 64 18 57 14 78 78 ESE 13 20 30.00 1016 10 16 0.01 0.25
11:48 pm 23:48 Cloudy with Nearby Thunderstorms 64 17.8 57 13.9 78 78 ESE 12 19 30.01 1016 10 16 0.01 0.25

Powered by AerisWeather